Location: Unspecified
(0.0000°N, 0.0000°E)
Time: 18:53:29
(UTC+00:00)

Explorer 11/Cluster Stage 4 - Pass Details

Date: 21 November 2019
Orbit: 467 x 1259 km, 28.8° (Epoch: 05 December)

Event Time Altitude Azimuth Distance (km) Brightness Sun altitude
Rises 13:59:47 0° 229° (SW) 2,537 9.8 51.6°
Reaches altitude 10° 14:02:05 10° 221° (SW) 1,622 9.0 51.2°
Maximum altitude 14:05:30 40° 150° (SSE) 695 6.9 50.4°
Drops below altitude 10° 14:08:59 10° 78° (ENE) 1,644 8.0 49.7°
Sets 14:11:20 0° 71° (ENE) 2,578 8.9 49.2°
